STARLINK-32394, 61853

Orbit data source: Space-Track

STARLINK-32394, 61853 is a payload satellite owned by SpaceX/Seattle (US) in LEO that was launched on Thu, 07 Nov 2024 UTC via an FALCON 9 launch vehicle from the Air Force Eastern Test Range (AFETR). Payload-class satellites include a variety of spacecraft equipped with specific instruments for various scientific and technological missions. These include communications satellites like Starlink; space stations such as the ISS; scientific satellites like the Hubble; Earth observation satellites from companies like Planet Labs, Umbra, and HawkEye 360; GPS; miniature CubeSats for education and research; and military/defense satellites.

Loading next visibility...
Identifier
61853, 2024-202J
Orbit
LEO
Country
Flag of USUS
Related business
Manufacturer
SpaceX/Seattle
Mission
Operational Commercial Communications
Bus & Motor
STARLINK V2M, Unknown motor
Mass
730 kg wet, ~700 kg dry
Launch date (UTC)
2024-11-07 (10 months ago)
Launch vehicle
FALCON 9
Launch site
Air Force Eastern Test Range (AFETR)
Object type
Payload
Rocket body
Debris
Shape & HBR
Box + 2 Pan, 14.5 m
Radar Cross Section
33.884 m², Large (>1 m²)

Expand to show TLE details & history
Last TLE update: 1 day ago

TLE from 1 day ago
0 STARLINK-32394
1 61853U 24202J   25260.04171922 -.00004152  00000-0 -14152-3 0  9994
2 61853  43.0051 138.3828 0001644 277.7631  82.3034 15.27555041 48770
Epoch: 2025-09-17T01:00Z
TLE epoch observation values (Epoch: 2025-09-17T01:00:04.54Z)
Latitude
-0.00002°
Longitude
127.1405°
Altitude
482.749 km
Speed
7.626 km/s
True Right ascension
09h 13m 31s
True Declination
0° 00' 00"
Sunlit
Object was in daylight at epoch
Visualization orbit readout
Latitude
Unknown
Longitude
Unknown
Altitude
Unknown
Speed
Unknown
Apparent Right ascension
Unknown
Apparent Declination
Unknown
Sunlit
N/A
Visualization observer readout
Local Sidereal Time
22:02:44
Azimuth
Unknown
Elevation
Unknown
Doppler factor
Unknown
Orbital elements
Apogee altitude
486.196 km
Perigee altitude
483.94 km
Semi-major axis
6,863.205 km
Eccentricity
0.00016
Inclination
43.0051°
RAAN
138.3828°
Arg. of periapsis
277.7631°
True anomaly
82.32207°
Mean anomaly
82.3034°
Eccentric anomaly
82.31273°
Mean motion
3.81727 °/min
Orbital period
94.31 mins
BSTAR
-0.00014152
Loading maneuver chart data...
Computing Atmospheric mass density...
Loading historical data...
Loading historical data...
Loading historical data...
Loading historical data...
Loading historical data...
Loading historical data...
Loading historical data...

Documentation

Showing up to 5 results
|